[[{"header":{"parameterUnit":"m.s-1","parameterCategory":1,"la1":30.2991,"la2":30.254,"lo1":-89.0895,"lo2":-89.0444,"dy":0.0017,"dx":0.0017,"nx":28,"ny":28,"refTime":"2024-08-22T21:00:00:Z","depth":0,"parameterNumber":2,"parameterNumberName":"U-component_of_WINDS"},"data":[0,0,0,0,0,0,0,0,0,0,0,0,0,0,0,0,0,0,0,0,0,0,0,0,0,0,0,0,0,0,0,0,0,0,0,0,0,0,0,0,0,0,0,0,0,0,0,0,0,0,0,0,0,0,0,0,0,0,-5.2351,-5.2352,0,-5.2392,-5.2393,-5.2393,-5.2274,-5.227,-5.2267,-5.2263,-5.2309,-5.2314,-5.2319,0,0,0,0,0,0,0,0,0,0,0,0,0,-5.2175,-5.2179,-5.2351,-5.2352,-5.2352,-5.2392,-5.2393,-5.2393,-5.2275,-5.227,-5.2266,-5.2261,-5.2308,-5.2313,-5.2319,0,0,0,0,0,0,0,0,0,0,0,0,0,-5.2238,-5.218,-5.2351,-5.2298,-5.2293,-5.2392,-5.2393,-5.2394,-5.2276,-5.227,-5.2264,-5.2259,-5.2306,-5.2313,-5.232,-5.2474,0,0,-5.2341,-5.2344,0,0,0,0,0,0,0,0,-5.2234,-5.2244,-5.2305,-5.2302,-5.2297,-5.2322,-5.2347,-5.2421,-5.2277,-5.2283,-5.2263,-5.2257,-5.2319,-5.2324,-5.2344,-5.2476,-5.2478,-5.2342,-5.2346,-5.2349,-5.2351,0,0,0,0,0,0,0,-5.223,-5.2242,-5.2368,-5.2306,-5.2301,-5.2273,-5.2276,-5.2361,-5.2331,-5.2282,-5.2273,-5.2279,-5.2315,-5.2338,-5.2344,-5.2478,-5.2342,-5.2348,-5.2352,-5.2355,-5.274,-5.2746,0,0,0,0,0,0,-5.2232,-5.2239,-5.2366,-5.2369,-5.2251,-5.2281,-5.2284,-5.232,-5.233,-5.2326,-5.2284,-5.2274,-5.2328,-5.2336,-5.2345,-5.2527,-5.2349,-5.2356,-5.236,-5.2734,-5.2741,-5.2748,0,0,0,0,0,0,-5.2229,-5.2244,-5.2365,-5.2302,-5.2315,-5.229,-5.2331,-5.2324,-5.2346,-5.2331,-5.2326,-5.2312,-5.2324,-5.2336,-5.2443,-5.2527,-5.2359,-5.2365,-5.2727,-5.2736,-5.2745,-5.2891,0,0,0,0,0,0,-5.2224,-5.2244,-5.2301,-5.2304,-5.2319,-5.246,-5.2336,-5.2328,-5.2358,-5.2344,-5.2356,-5.2353,-5.2321,-5.2433,-5.245,-5.2534,-5.2371,-5.2719,-5.2731,-5.2742,-5.2879,-5.2904,-5.2926,0,0,0,0,0,-5.2218,-5.2341,-5.2304,-5.232,-5.2389,-5.2465,-5.2474,-5.2433,-5.2365,-5.2423,-5.2414,-5.2353,-5.2515,-5.2445,-5.2463,-5.255,-5.2714,-5.2728,-5.2741,-5.2868,-5.2899,-5.2925,0,0,0,0,0,0,-5.235,-5.234,-5.23,-5.2427,-5.2448,-5.2445,-5.2516,-5.2467,-5.2508,-5.2495,-5.2443,-5.2447,-5.2564,-5.2568,-5.249,-5.27,-5.2603,-5.2621,-5.2694,-5.2723,-5.2746,-5.2743,-5.2376,0,0,0,0,0,-5.2394,-5.2455,-5.2444,-5.2557,-5.257,-5.2542,-5.2573,-5.254,-5.256,-5.2569,-5.2567,-5.2591,-5.2647,-5.2685,-5.2736,-5.2879,-5.2881,-5.2948,-5.2971,-5.2991,-5.3007,-5.3084,-5.3115,-5.2793,-5.2792,-5.2792,0,0,-5.2485,-5.2487,-5.2529,-5.2584,-5.2596,-5.2662,-5.255,-5.2624,-5.2673,-5.258,-5.2681,-5.2682,-5.2704,-5.283,-5.2886,-5.2837,-5.3096,-5.3008,-5.3024,-5.3029,-5.3102,-5.3132,-5.3159,-5.2802,-5.28,-5.2799,0,0,-5.2685,-5.2692,-5.2788,-5.2802,-5.2822,-5.2803,-5.2826,-5.2831,-5.2828,-5.2928,-5.286,-5.2918,-5.3016,-5.3035,-5.3058,-5.3267,-5.3213,-5.3285,-5.3409,-5.3485,-5.351,-5.3532,-5.3608,-5.3636,-5.3301,-5.3302,-5.3302,0,-5.2796,-5.2891,-5.2844,-5.2923,-5.295,-5.2868,-5.2966,-5.2982,-5.3019,-5.304,-5.2984,-5.3106,-5.3115,-5.3245,-5.3296,-5.3317,-5.3343,-5.3284,-5.351,-5.3532,-5.3552,-5.3624,-5.3652,-5.331,-5.3309,-5.3308,-5.3308,0,-5.3028,-5.3095,-5.3171,-5.3206,-5.3242,-5.333,-5.3298,-5.3339,-5.3304,-5.3291,-5.3396,-5.3404,-5.3456,-5.3484,-5.345,-5.3611,-5.358,-5.3518,-5.3419,-5.3592,-5.3659,-5.3686,-5.3323,-5.332,-5.3317,-5.3315,0,0,-5.3311,-5.332,-5.3349,-5.3364,-5.3381,-5.3433,-5.3519,-5.3568,-5.3605,-5.3634,-5.3705,-5.379,-5.3734,-5.376,-5.3727,-5.3794,-5.3961,-5.3724,-5.3724,-5.3769,-5.414,-5.4187,-5.4219,-5.3925,-5.393,-5.3935,-5.4139,0,-5.3509,-5.3654,-5.3614,-5.376,-5.3822,-5.3746,-5.3821,-5.384,-5.3831,-5.3885,-5.3875,-5.3937,-5.3856,-5.3872,-5.3935,-5.3928,-5.4035,-5.3912,-5.3993,-5.3997,-5.3991,-5.4254,-5.4303,-5.4495,-5.4164,-5.4169,-5.4172,0,-5.3759,-5.3796,-5.3947,-5.3954,-5.3979,-5.4047,-5.409,-5.4141,-5.4162,-5.4151,-5.4181,-5.4136,-5.4222,-5.4123,-5.4242,-5.416,-5.4191,-5.4193,-5.4199,-5.4206,-5.4095,-5.4269,-5.4555,-5.4585,-5.4212,-5.4209,-5.4206,0,-5.3952,-5.4039,-5.4141,-5.4157,-5.4168,-5.4218,-5.4225,-5.424,-5.4273,-5.4311,-5.4332,-5.4381,-5.4408,-5.4447,-5.4417,-5.4347,-5.4543,-5.444,-5.4537,-5.4538,-5.4582,-5.458,-5.4879,-5.4601,-5.4601,-5.46,-5.46,0,-5.4177,-5.4273,-5.4228,-5.4291,-5.4398,-5.4352,-5.4459,-5.4457,-5.4472,-5.4535,-5.4472,-5.4533,-5.4489,-5.4547,-5.4525,-5.4628,-5.4641,-5.4635,-5.4628,-5.4641,-5.4642,-5.4661,-5.4647,-5.4608,-5.4606,-5.4605,-5.4604,0,-5.441,-5.4384,-5.449,-5.4492,-5.4494,-5.4573,-5.4575,-5.4634,-5.4621,-5.4701,-5.4718,-5.4698,-5.4762,-5.4736,-5.4805,-5.479,-5.4923,-5.4898,-5.4915,-5.4909,-5.5008,-5.5,-5.533,-5.5372,-5.5067,-5.507,-5.5073,0,-5.4555,-5.4627,-5.4636,-5.4673,-5.4684,-5.4745,-5.4778,-5.4737,-5.4774,-5.4804,-5.4861,-5.492,-5.4965,-5.5073,-5.5066,-5.5119,-5.5095,-5.5207,-5.5103,-5.5114,-5.5098,-5.5094,-5.5102,-5.5229,-5.5232,-5.5235,-5.5237,0,-5.4817,-5.4801,-5.485,-5.4896,-5.4936,-5.4971,-5.4999,-5.5034,-5.4994,-5.504,-5.5105,-5.514,-5.521,-5.527,-5.5318,-5.5327,-5.5277,-5.527,-5.5296,-5.531,-5.5318,-5.5316,-5.4973,-5.5263,-5.526,-5.5259,-5.5257,-5.5256,-5.5011,-5.5072,-5.5088,-5.5146,-5.5163,-5.5192,-5.5248,-5.5242,-5.5294,-5.5347,-5.532,-5.5397,-5.5418,-5.5476,-5.5492,-5.5553,-5.5509,-5.5545,-5.5555,-5.5565,-5.5578,-5.5308,-5.5561,-5.556,-5.556,-5.5559,-5.5558,0,-5.527,-5.5277,-5.533,-5.5372,-5.5418,-5.5365,-5.5395,-5.5437,-5.5504,-5.5528,-5.5573,-5.5649,-5.5708,-5.5705,-5.576,-5.5809,-5.5788,-5.5825,-5.5821,-5.5824,-5.5613,-5.5586,-5.5841,-5.5841,-5.5841,-5.5841,-5.5841,-5.5841,-5.541,-5.5511,-5.5497,-5.5607,-5.5613,-5.5685,-5.5707,-5.5734,-5.5752,-5.5839,-5.5887,-5.5885,-5.5899,-5.5954,-5.6006,-5.6004,-5.6028,-5.6074,-5.6064,-5.5867,-5.5839,-5.5812,-5.5786,-5.6079,-5.608,-5.627,-5.6271,-5.6273]},{"header":{"parameterUnit":"m.s-1","parameterCategory":1,"la1":30.2991,"la2":30.254,"lo1":-89.0895,"lo2":-89.0444,"dy":0.0017,"dx":0.0017,"nx":28,"ny":28,"refTime":"2024-08-22T21:00:00:Z","depth":0,"parameterNumber":3,"parameterNumberName":"V-component_of_WINDS"},"data":[0,0,0,0,0,0,0,0,0,0,0,0,0,0,0,0,0,0,0,0,0,0,0,0,0,0,0,0,0,0,0,0,0,0,0,0,0,0,0,0,0,0,0,0,0,0,0,0,0,0,0,0,0,0,0,0,0,0,-0.9862,-0.9862,0,-0.9875,-0.9875,-0.9875,-0.986,-0.9859,-0.9859,-0.9858,-0.9872,-0.9873,-0.9874,0,0,0,0,0,0,0,0,0,0,0,0,0,-0.9822,-0.9823,-0.9862,-0.9862,-0.9862,-0.9875,-0.9875,-0.9875,-0.986,-0.9859,-0.9858,-0.9858,-0.9872,-0.9873,-0.9874,0,0,0,0,0,0,0,0,0,0,0,0,0,-0.9838,-0.9823,-0.9862,-0.9856,-0.9856,-0.9875,-0.9875,-0.9875,-0.986,-0.9859,-0.9858,-0.9857,-0.9871,-0.9873,-0.9874,-0.99,0,0,-0.9878,-0.9879,0,0,0,0,0,0,0,0,-0.9837,-0.9839,-0.9857,-0.9856,-0.9856,-0.9865,-0.9866,-0.9884,-0.986,-0.9858,-0.9858,-0.9857,-0.987,-0.9872,-0.9876,-0.9901,-0.9901,-0.9879,-0.9879,-0.988,-0.988,0,0,0,0,0,0,0,-0.9836,-0.9839,-0.9867,-0.9857,-0.9856,-0.9852,-0.9854,-0.987,-0.9869,-0.9858,-0.9857,-0.9859,-0.987,-0.9875,-0.9877,-0.9902,-0.9878,-0.988,-0.9881,-0.9881,-0.9947,-0.9948,0,0,0,0,0,0,-0.9836,-0.9838,-0.9867,-0.9867,-0.9844,-0.9854,-0.9855,-0.9863,-0.9869,-0.9869,-0.986,-0.9858,-0.9873,-0.9875,-0.9877,-0.9907,-0.988,-0.9881,-0.9882,-0.9946,-0.9947,-0.9948,0,0,0,0,0,0,-0.9835,-0.9838,-0.9866,-0.9852,-0.9856,-0.9855,-0.9864,-0.9864,-0.9868,-0.987,-0.987,-0.9865,-0.9872,-0.9875,-0.9894,-0.9907,-0.9882,-0.9883,-0.9945,-0.9946,-0.9947,-0.9968,0,0,0,0,0,0,-0.9834,-0.9838,-0.9848,-0.9853,-0.9856,-0.9883,-0.9865,-0.9865,-0.9871,-0.9869,-0.9875,-0.9875,-0.9872,-0.9892,-0.9896,-0.9909,-0.9884,-0.9944,-0.9945,-0.9947,-0.9966,-0.997,-0.9973,0,0,0,0,0,-0.9832,-0.9854,-0.9849,-0.9853,-0.9869,-0.9884,-0.9886,-0.9882,-0.9872,-0.9882,-0.9883,-0.9875,-0.9905,-0.9894,-0.9898,-0.9912,-0.9943,-0.9945,-0.9947,-0.9964,-0.9969,-0.9973,0,0,0,0,0,0,-0.9852,-0.9855,-0.9849,-0.9873,-0.9878,-0.9882,-0.9894,-0.9888,-0.9896,-0.9894,-0.9889,-0.9891,-0.9911,-0.9913,-0.9901,-0.9936,-0.9922,-0.9925,-0.9934,-0.9939,-0.9942,-0.9941,-0.9885,0,0,0,0,0,-0.9859,-0.9871,-0.9872,-0.9893,-0.9896,-0.9895,-0.9901,-0.9897,-0.9903,-0.9905,-0.9908,-0.9914,-0.9924,-0.9932,-0.9942,-0.9966,-0.9967,-0.9977,-0.9981,-0.9983,-0.9986,-0.9998,-1.0003,-0.9955,-0.9955,-0.9955,0,0,-0.9873,-0.9876,-0.9884,-0.9897,-0.9901,-0.9913,-0.9897,-0.9911,-0.992,-0.9908,-0.9926,-0.9927,-0.9933,-0.9955,-0.9965,-0.9958,-0.9999,-0.9986,-0.9988,-0.9989,-1.0001,-1.0005,-1.0009,-0.9956,-0.9956,-0.9956,0,0,-0.9906,-0.991,-0.9927,-0.9931,-0.9936,-0.9935,-0.9939,-0.9943,-0.9944,-0.9961,-0.9952,-0.9963,-0.9982,-0.9986,-0.9991,-1.0023,-1.0016,-1.0027,-1.0045,-1.0057,-1.0061,-1.0064,-1.0075,-1.0079,-1.0029,-1.003,-1.003,0,-0.9923,-0.9941,-0.9936,-0.995,-0.9956,-0.9945,-0.9962,-0.9966,-0.9975,-0.9979,-0.9971,-0.9993,-0.9997,-1.0019,-1.0026,-1.0031,-1.0035,-1.0026,-1.006,-1.0064,-1.0067,-1.0077,-1.0081,-1.0031,-1.0031,-1.003,-1.003,0,-0.9962,-0.9975,-0.9988,-0.9996,-1.0003,-1.0018,-1.0015,-1.0023,-1.0018,-1.0017,-1.0035,-1.0039,-1.0049,-1.0054,-1.005,-1.0075,-1.007,-1.0061,-1.0047,-1.0073,-1.0082,-1.0086,-1.0032,-1.0032,-1.0032,-1.0031,0,0,-1.0008,-1.0012,-1.0017,-1.002,-1.0025,-1.0035,-1.0049,-1.0058,-1.0065,-1.0071,-1.0083,-1.0098,-1.009,-1.0095,-1.0091,-1.0102,-1.0126,-1.0092,-1.0092,-1.0097,-1.0153,-1.0159,-1.0164,-1.0121,-1.0122,-1.0123,-1.0152,0,-1.004,-1.0065,-1.006,-1.0085,-1.0096,-1.0085,-1.0097,-1.0101,-1.0101,-1.011,-1.0109,-1.012,-1.0109,-1.0112,-1.0121,-1.0121,-1.0137,-1.0119,-1.0132,-1.0132,-1.013,-1.0169,-1.0176,-1.0204,-1.0156,-1.0157,-1.0157,0,-1.0082,-1.0088,-1.0114,-1.0116,-1.012,-1.0131,-1.0139,-1.0148,-1.0152,-1.0151,-1.0156,-1.015,-1.0164,-1.0149,-1.0168,-1.0155,-1.016,-1.0161,-1.0162,-1.0163,-1.0146,-1.0171,-1.0213,-1.0217,-1.0163,-1.0163,-1.0162,0,-1.0112,-1.0127,-1.0144,-1.0147,-1.015,-1.0158,-1.016,-1.0163,-1.0168,-1.0175,-1.0178,-1.0187,-1.0191,-1.0197,-1.0193,-1.0183,-1.0213,-1.0198,-1.0212,-1.0212,-1.0218,-1.0218,-1.0262,-1.0222,-1.0222,-1.0222,-1.0222,0,-1.0148,-1.0164,-1.0157,-1.0168,-1.0185,-1.0179,-1.0195,-1.0196,-1.0198,-1.0208,-1.02,-1.0209,-1.0203,-1.0212,-1.0209,-1.0225,-1.0227,-1.0226,-1.0225,-1.0227,-1.0227,-1.023,-1.0227,-1.0223,-1.0223,-1.0223,-1.0222,0,-1.0185,-1.0181,-1.0199,-1.0199,-1.02,-1.0212,-1.0213,-1.0222,-1.0221,-1.0233,-1.0236,-1.0233,-1.0243,-1.024,-1.0251,-1.0248,-1.0268,-1.0265,-1.0266,-1.0265,-1.0279,-1.0278,-1.0326,-1.0331,-1.0289,-1.0289,-1.029,0,-1.0208,-1.022,-1.0221,-1.0227,-1.0229,-1.0238,-1.0244,-1.0238,-1.0243,-1.0248,-1.0257,-1.0266,-1.0273,-1.0289,-1.0288,-1.0296,-1.0292,-1.0309,-1.0294,-1.0294,-1.0292,-1.0291,-1.0292,-1.0312,-1.0312,-1.0313,-1.0313,0,-1.0249,-1.0247,-1.0254,-1.0261,-1.0267,-1.0273,-1.0277,-1.0282,-1.0277,-1.0283,-1.0293,-1.0298,-1.0309,-1.0317,-1.0324,-1.0326,-1.0318,-1.0318,-1.0321,-1.0323,-1.0323,-1.0322,-1.0274,-1.0317,-1.0316,-1.0316,-1.0316,-1.0316,-1.028,-1.0289,-1.0291,-1.03,-1.0302,-1.0306,-1.0314,-1.0313,-1.0321,-1.0329,-1.0325,-1.0336,-1.0339,-1.0347,-1.0349,-1.0358,-1.0351,-1.0357,-1.0358,-1.0359,-1.036,-1.0322,-1.0359,-1.0359,-1.0359,-1.0359,-1.0359,0,-1.032,-1.032,-1.0328,-1.0334,-1.034,-1.0332,-1.0337,-1.0343,-1.0352,-1.0355,-1.0362,-1.0372,-1.038,-1.038,-1.0387,-1.0394,-1.0391,-1.0396,-1.0395,-1.0395,-1.0366,-1.0362,-1.0398,-1.0398,-1.0398,-1.0398,-1.0398,-1.0398,-1.0341,-1.0356,-1.0354,-1.0369,-1.037,-1.038,-1.0383,-1.0386,-1.0389,-1.04,-1.0407,-1.0406,-1.0408,-1.0415,-1.0422,-1.0421,-1.0424,-1.0431,-1.0429,-1.0402,-1.0398,-1.0394,-1.039,-1.0432,-1.0432,-1.0457,-1.0458,-1.0458]}]]